311P/PanSTARRS (2020)

Japanese version
Home page
Updated on May 3, 2021

---------------------------------------------------------------------

* Profile

* Pictures

* Orbital Elements

Epoch 2020 Sept. 28.0 TT = JDT 2459120.5                                        
T 2020 Oct. 7.43003 TT                                  Rudenko                 
q   1.9360858            (2000.0)            P               Q                  
n   0.30440027     Peri.  144.58181     +0.43920961     -0.89430568             
a   2.1886318      Node   279.22749     +0.80299232     +0.43347436             
e   0.1153899      Incl.    4.96993     +0.40286258     +0.11098343             
P   3.24                                                                        
From 205 observations 2005 Jan. 17-2021 Jan. 18, mean residual 0".4.            

* Magnitudes Graph

        H = 17.5  G = 0.15

---------------------------------------------------------------------

The orbital elements are published on M.P.E.C. 2021-B143.
The magnitudes graphs are made with Comet for Windows.

---------------------------------------------------------------------

Copyright(C) Seiichi Yoshida (comet@aerith.net). All rights reserved.